FW3791 Weather Reports


time (UTC)temp
C
wind
direction
speed
KPH
gust
KPH
rain 1hr
cm
rain 24hr
cm
rain mn
cm
humidity
%
barometer
mb
20260510083417 22 120 1.6 6.4 0.00 0.00 0.00 85 1007.6
20260510083146 22 131 1.6 6.4 0.00 0.00 0.00 84 1007.5
20260510082415 22 127 1.6 4.8 0.00 0.00 0.00 84 1007.5
20260510081917 22 80 1.6 6.4 0.00 0.00 0.00 84 1007.5
20260510081415 23 143 1.6 6.4 0.00 0.00 0.00 84 1007.5
20260510080915 23 139 3.2 6.4 0.00 0.00 0.00 83 1007.5
20260510080405 23 160 3.2 6.4 0.00 0.00 0.00 83 1007.4
20260510075905 23 159 1.6 6.4 0.00 0.00 0.00 83 1007.4
20260510075404 23 154 3.2 6.4 0.00 0.00 0.00 84 1007.5
20260510074904 23 127 3.2 8.0 0.00 0.00 0.00 84 1007.5
20260510074404 23 156 3.2 8.0 0.00 0.00 0.00 83 1007.5
20260510073904 23 146 3.2 8.0 0.00 0.00 0.00 83 1007.6
20260510073400 23 156 3.2 12.9 0.00 0.00 0.00 83 1007.5
20260510072902 23 165 3.2 12.9 0.00 0.00 0.00 83 1007.6
20260510072400 23 175 3.2 9.7 0.00 0.00 0.00 84 1007.5
20260510071900 23 170 3.2 9.7 0.00 0.00 0.00 84 1007.6
20260510071400 23 188 1.6 9.7 0.00 0.00 0.00 84 1007.6
20260510071138 23 145 1.6 9.7 0.00 0.00 0.00 84 1007.6
20260510070358 23 127 1.6 6.4 0.00 0.00 0.00 84 1007.6
20260510065859 23 150 3.2 9.7 0.00 0.00 0.00 84 1007.6
20260510065354 23 160 1.6 9.7 0.00 0.00 0.00 83 1007.6
20260510064855 23 166 1.6 6.4 0.00 0.00 0.00 83 1007.6
20260510064356 23 167 3.2 9.7 0.00 0.00 0.00 83 1007.7
20260510063852 23 157 3.2 9.7 0.00 0.00 0.00 83 1007.7
20260510063353 23 163 3.2 8.0 0.00 0.00 0.00 83 1007.7
20260510062853 24 151 3.2 11.3 0.00 0.00 0.00 84 1007.6
20260510062353 24 166 3.2 11.3 0.00 0.00 0.00 83 1007.6
20260510061852 24 168 3.2 11.3 0.00 0.00 0.00 83 1007.7
20260510061631 24 154 3.2 11.3 0.00 0.00 0.00 83 1007.7
20260510060853 24 154 1.6 8.0 0.00 0.00 0.00 83 1007.9
20260510060350 24 153 3.2 8.0 0.00 0.00 0.00 83 1007.9
20260510055850 24 140 3.2 8.0 0.00 0.00 0.00 82 1007.9
20260510055646 24 126 3.2 4.8 0.00 0.00 0.00 81 1007.8
20260510055641 24 138 3.2 8.0 0.00 0.00 0.00 81 1007.8
20260510054349 24 137 3.2 4.8 0.00 0.00 0.00 81 1007.8
20260510053848 24 124 3.2 4.8 0.00 0.00 0.00 80 1007.7
20260510053346 24 116 3.2 6.4 0.00 0.00 0.00 80 1007.7
20260510053131 24 80 3.2 6.4 0.00 0.00 0.00 80 1007.6
20260510052336 24 139 1.6 6.4 0.00 0.00 0.00 79 1007.6
20260510051836 24 123 1.6 6.4 0.00 0.00 0.00 79 1007.6
20260510051334 24 139 1.6 6.4 0.00 0.00 0.00 79 1007.6
20260510050835 24 130 3.2 6.4 0.00 0.00 0.00 79 1007.6
20260510050332 24 146 3.2 6.4 0.00 0.00 0.00 79 1007.6
20260510050109 24 139 3.2 8.0 0.00 0.00 0.00 79 1007.6
20260510045607 24 145 3.2 8.0 0.00 0.00 0.00 79 1007.5
20260510044821 24 142 1.6 8.0 0.00 0.00 0.00 79 1007.5
20260510044321 24 124 1.6 6.4 0.00 0.00 0.00 78 1007.5
20260510043821 24 133 1.6 4.8 0.00 0.00 0.00 78 1007.5
20260510043559 24 133 1.6 4.8 0.00 0.00 0.00 78 1007.5
20260510042820 25 104 1.6 4.8 0.00 0.00 0.00 78 1007.5
20260510042310 25 116 1.6 4.8 0.00 0.00 0.00 78 1007.5
20260510042040 25 119 1.6 4.8 0.00 0.00 0.00 77 1007.4
20260510041310 25 122 1.6 4.8 0.00 0.00 0.00 77 1007.3
20260510040807 25 119 1.6 4.8 0.00 0.00 0.00 77 1007.3
20260510040306 25 120 0.0 3.2 0.00 0.00 0.00 76 1007.4
20260510035806 25 120 0.0 0.0 0.00 0.00 0.00 76 1007.3
20260510035306 25 120 0.0 0.0 0.00 0.00 0.00 76 1007.3
20260510034754 25 120 0.0 0.0 0.00 0.00 0.00 76 1007.3
20260510034231 25 120 0.0 0.0 0.00 0.00 0.00 76 1007.3
20260510033939 25 120 0.0 0.0 0.00 0.00 0.00 75 1007.2
20260510033202 25 120 0.0 0.0 0.00 0.00 0.00 76 1007.1
20260510032700 25 120 0.0 1.6 0.00 0.00 0.00 75 1007.1
20260510032418 26 119 1.6 4.8 0.00 0.00 0.00 74 1007.1
20260510031648 26 116 0.0 4.8 0.00 0.00 0.00 74 1007.1
20260510031141 26 112 0.0 3.2 0.00 0.00 0.00 74 1007.1
20260510030642 26 112 0.0 4.8 0.00 0.00 0.00 73 1006.9
20260510030413 26 111 1.6 4.8 0.00 0.00 0.00 73 1006.8
20260510025630 26 110 1.6 4.8 0.00 0.00 0.00 73 1006.8
20260510025110 26 106 0.0 4.8 0.00 0.00 0.00 73 1006.8
20260510024605 26 105 1.6 4.8 0.00 0.00 0.00 72 1006.9
20260510024106 26 104 1.6 4.8 0.00 0.00 0.00 72 1006.8
20260510023602 26 100 1.6 4.8 0.00 0.00 0.00 72 1006.7
20260510023059 26 96 1.6 4.8 0.00 0.00 0.00 71 1006.7
20260510022600 26 96 0.0 4.8 0.00 0.00 0.00 71 1006.7
20260510022056 27 85 0.0 4.8 0.00 0.00 0.00 71 1006.7
20260510021559 27 75 0.0 4.8 0.00 0.00 0.00 70 1006.7
20260510021048 27 89 0.0 4.8 0.00 0.00 0.00 69 1006.5
20260510020548 27 69 1.6 4.8 0.00 0.00 0.00 69 1006.6
20260510020046 27 113 1.6 4.8 0.00 0.00 0.00 69 1006.5
20260510015546 27 99 1.6 4.8 0.00 0.00 0.00 69 1006.5
20260510015047 27 105 1.6 4.8 0.00 0.00 0.00 68 1006.4
20260510015041 27 75 1.6 4.8 0.00 0.00 0.00 68 1006.3
20260510014036 27 102 1.6 4.8 0.00 0.00 0.00 68 1006.2
20260510013534 27 80 1.6 4.8 0.00 0.00 0.00 67 1006.1
20260510013035 28 68 1.6 4.8 0.00 0.00 0.00 66 1006.0
20260510012534 28 101 1.6 4.8 0.00 0.00 0.00 66 1006.0
20260510012025 28 46 1.6 4.8 0.00 0.00 0.00 65 1006.0
20260510011523 28 70 1.6 4.8 0.00 0.00 0.00 65 1005.9
20260510011254 28 93 1.6 4.8 0.00 0.00 0.00 63 1005.9
20260510010524 28 68 1.6 4.8 0.00 0.00 0.00 64 1005.9
20260510010023 28 35 1.6 4.8 0.00 0.00 0.00 63 1005.8
20260510005524 28 98 1.6 4.8 0.00 0.00 0.00 62 1005.7
20260510005021 28 93 1.6 4.8 0.00 0.00 0.00 62 1005.6
20260510004520 28 12 1.6 4.8 0.00 0.00 0.00 62 1005.6
20260510004016 29 31 0.0 3.2 0.00 0.00 0.00 65 1005.5
20260510003510 29 37 1.6 4.8 0.00 0.00 0.00 68 1005.6
20260510002959 29 31 1.6 4.8 0.00 0.00 0.00 69 1005.5
20260510002500 29 35 0.0 4.8 0.00 0.00 0.00 69 1005.4
20260510002230 29 47 0.0 3.2 0.00 0.00 0.00 75 1005.4
20260510001418 29 46 0.0 3.2 0.00 0.00 0.00 76 1005.4
20260510000918 30 109 0.0 3.2 0.00 0.00 0.00 75 1005.4
20260510000404 30 116 0.0 3.2 0.00 0.00 0.00 74 1005.3
20260509235902 30 125 0.0 1.6 0.00 0.00 0.00 74 1005.3
20260509235358 30 126 0.0 0.0 0.00 0.00 0.00 73 1005.2
20260509234858 30 126 0.0 1.6 0.00 0.00 0.00 74 1005.1
20260509234619 30 126 1.6 4.8 0.00 0.00 0.00 73 1005.1
20260509233838 30 125 1.6 6.4 0.00 0.00 0.00 73 1005.2
20260509233335 31 119 1.6 6.4 0.00 0.00 0.00 73 1005.4
20260509232836 31 162 1.6 6.4 0.00 0.00 0.00 73 1005.4
20260509232328 31 160 1.6 8.0 0.00 0.00 0.00 73 1005.5
20260509231829 31 166 3.2 9.7 0.00 0.00 0.00 73 1005.6
20260509231328 31 162 3.2 9.7 0.00 0.00 0.00 71 1005.6
20260509230828 31 168 3.2 8.0 0.00 0.00 0.00 73 1005.6
20260509230327 31 160 3.2 11.3 0.00 0.00 0.00 71 1005.6
20260509225818 31 200 3.2 11.3 0.00 0.00 0.00 71 1005.7
20260509225317 32 198 1.6 8.0 0.00 0.00 0.00 70 1005.5
20260509224817 32 118 3.2 8.0 0.00 0.00 0.00 70 1005.6
20260509224553 32 115 1.6 6.4 0.00 0.00 0.00 69 1005.6
20260509224048 32 114 1.6 6.4 0.00 0.00 0.00 69 1005.6
20260509223308 32 123 1.6 6.4 0.00 0.00 0.00 69 1005.6
20260509222808 32 170 3.2 9.7 0.00 0.00 0.00 70 1005.6
20260509222307 32 193 3.2 9.7 0.00 0.00 0.00 66 1005.6
20260509221804 32 161 3.2 9.7 0.00 0.00 0.00 69 1005.6
20260509221304 32 162 3.2 9.7 0.00 0.00 0.00 68 1005.5
20260509220756 32 119 1.6 6.4 0.00 0.00 0.00 69 1005.5
20260509220254 32 159 1.6 9.7 0.00 0.00 0.00 66 1005.5
20260509215754 32 156 3.2 9.7 0.00 0.00 0.00 66 1005.7
20260509215253 32 179 4.8 11.3 0.00 0.00 0.00 68 1005.6
20260509215026 32 177 4.8 12.9 0.00 0.00 0.00 66 1005.6
20260509214244 32 162 3.2 12.9 0.00 0.00 0.00 70 1005.7
20260509213744 32 158 3.2 11.3 0.00 0.00 0.00 71 1005.7
20260509213244 32 204 3.2 12.9 0.00 0.00 0.00 70 1005.8
20260509212741 32 178 4.8 12.9 0.00 0.00 0.00 66 1005.8
20260509212241 32 147 4.8 9.7 0.00 0.00 0.00 70 1005.9
20260509211741 32 166 4.8 14.5 0.00 0.00 0.00 69 1005.7
20260509211514 32 203 4.8 14.5 0.00 0.00 0.00 60 1005.7
20260509211012 32 275 4.8 14.5 0.00 0.00 0.00 62 1005.7
20260509210240 32 176 3.2 11.3 0.00 0.00 0.00 71 1005.9
20260509210014 32 261 1.6 11.3 0.00 0.00 0.00 70 1006.0
20260509205240 32 115 3.2 14.5 0.00 0.00 0.00 71 1006.2
20260509205012 32 127 3.2 14.5 0.00 0.00 0.00 72 1006.2
20260509204232 32 85 3.2 12.9 0.00 0.00 0.00 73 1006.3
20260509203722 32 170 4.8 14.5 0.00 0.00 0.00 73 1006.3
20260509203223 32 174 4.8 14.5 0.00 0.00 0.00 73 1006.3
20260509202722 32 144 4.8 12.9 0.00 0.00 0.00 71 1006.4
20260509202445 32 221 4.8 12.9 0.00 0.00 0.00 73 1006.5
20260509201712 32 168 3.2 11.3 0.00 0.00 0.00 73 1006.5
20260509201209 32 159 4.8 16.1 0.00 0.00 0.00 73 1006.6
20260509200943 32 158 4.8 16.1 0.00 0.00 0.00 72 1006.7
20260509200210 32 157 3.2 12.9 0.00 0.00 0.00 72 1006.8
20260509195940 32 80 3.2 9.7 0.00 0.00 0.00 70 1007.1
20260509195200 32 142 3.2 8.0 0.00 0.00 0.00 70 1007.1
20260509194936 31 80 3.2 11.3 0.00 0.00 0.00 71 1007.3
20260509194158 31 203 3.2 11.3 0.00 0.00 0.00 70 1007.4
20260509193658 31 161 3.2 11.3 0.00 0.00 0.00 65 1007.4
20260509193422 31 164 3.2 11.3 0.00 0.00 0.00 66 1007.4
20260509192921 31 159 3.2 11.3 0.00 0.00 0.00 68 1007.5
20260509192149 31 158 3.2 11.3 0.00 0.00 0.00 73 1007.6
20260509191648 31 221 3.2 11.3 0.00 0.00 0.00 68 1007.7
20260509191437 31 189 3.2 14.5 0.00 0.00 0.00 69 1007.6
20260509190648 31 194 4.8 14.5 0.00 0.00 0.00 71 1007.7
20260509190142 30 137 4.8 12.9 0.00 0.00 0.00 68 1007.8
20260509185642 30 170 4.8 11.3 0.00 0.00 0.00 70 1007.7
20260509185139 30 146 4.8 14.5 0.00 0.00 0.00 72 1007.7
20260509184639 30 199 4.8 14.5 0.00 0.00 0.00 72 1007.7
20260509184140 30 157 4.8 11.3 0.00 0.00 0.00 71 1007.7
20260509183628 30 193 4.8 19.3 0.00 0.00 0.00 72 1007.8
20260509183128 29 173 4.8 19.3 0.00 0.00 0.00 71 1007.7
20260509182628 29 165 3.2 9.7 0.00 0.00 0.00 72 1007.8
20260509182402 29 181 3.2 11.3 0.00 0.00 0.00 74 1008.0
20260509181626 29 186 3.2 11.3 0.00 0.00 0.00 79 1008.3
20260509181127 29 197 4.8 11.3 0.00 0.00 0.00 75 1008.2
20260509180620 29 197 4.8 12.9 0.00 0.00 0.00 76 1008.2
20260509180352 28 183 4.8 12.9 0.00 0.00 0.00 75 1008.1
20260509175849 28 175 3.2 9.7 0.00 0.00 0.00 77 1008.1
20260509175116 28 149 3.2 9.7 0.00 0.00 0.00 77 1008.2
20260509174618 28 262 3.2 11.3 0.00 0.00 0.00 78 1008.3
20260509174339 27 198 3.2 11.3 0.00 0.00 0.00 78 1008.3
20260509173607 27 167 3.2 14.5 0.00 0.00 0.00 80 1008.4
20260509173107 27 239 4.8 14.5 0.00 0.00 0.00 80 1008.4
20260509172606 27 153 4.8 19.3 0.00 0.00 0.00 82 1008.3
20260509172107 27 166 4.8 19.3 0.00 0.00 0.00 84 1008.2
20260509171607 27 167 3.2 12.9 0.00 0.00 0.00 84 1008.3
20260509171106 26 214 3.2 12.9 0.00 0.00 0.00 85 1008.4
20260509170604 26 170 4.8 12.9 0.00 0.00 0.00 87 1008.4
20260509165845 26 183 3.2 9.7 0.00 0.00 0.00 91 1008.4
20260509165839 26 187 3.2 9.7 0.00 0.00 0.00 90 1008.4
20260509164557 25 167 3.2 11.3 0.00 0.00 0.00 92 1008.4
20260509164052 25 189 3.2 11.3 0.00 0.00 0.00 92 1008.3
20260509163554 25 242 3.2 11.3 0.00 0.00 0.00 93 1008.4
20260509163038 25 211 3.2 11.3 0.00 0.00 0.00 93 1008.5
20260509162528 25 160 3.2 9.7 0.00 0.00 0.00 93 1008.5
20260509162027 25 274 0.0 8.0 0.00 0.00 0.00 93 1008.5
20260509161528 24 158 1.6 11.3 0.00 0.00 0.00 93 1008.6
20260509161020 24 198 1.6 11.3 0.00 0.00 0.00 94 1008.5
20260509160510 24 112 3.2 9.7 0.00 0.00 0.00 93 1008.4
20260509160009 23 135 3.2 11.3 0.00 0.00 0.00 94 1008.3
20260509155509 23 161 3.2 11.3 0.00 0.00 0.00 94 1008.3
20260509155009 23 167 3.2 11.3 0.00 0.00 0.00 94 1008.2
20260509154509 23 133 4.8 19.3 0.00 0.00 0.00 94 1008.3
20260509154010 23 172 4.8 19.3 0.00 0.00 0.00 94 1008.1
20260509153513 22 118 3.2 6.4 0.00 0.00 0.00 94 1008.3
20260509153508 22 158 3.2 9.7 0.00 0.00 0.00 94 1008.1
20260509152731 22 141 3.2 11.3 0.00 0.00 0.00 94 1008.5
20260509152000 22 172 3.2 11.3 0.00 0.00 0.00 94 1008.4
20260509151501 22 151 1.6 9.7 0.00 0.00 0.00 94 1008.3
20260509151001 22 111 1.6 4.8 0.00 0.00 0.00 94 1008.6
20260509150458 22 119 0.0 3.2 0.00 0.00 0.00 94 1008.7
20260509150205 22 122 0.0 4.8 0.00 0.00 0.00 94 1008.6
20260509145419 22 122 1.6 4.8 0.00 0.00 0.00 93 1008.6
20260509144916 22 122 1.6 4.8 0.00 0.00 0.00 93 1008.7
20260509144409 22 108 1.6 4.8 0.00 0.00 0.00 93 1008.8
20260509143910 22 117 1.6 4.8 0.00 0.00 0.00 93 1008.7
20260509143402 22 119 1.6 6.4 0.00 0.00 0.00 93 1008.8
20260509142859 22 118 1.6 6.4 0.00 0.00 0.00 93 1008.9
20260509142400 22 114 1.6 4.8 0.00 0.00 0.00 93 1008.8
20260509141857 22 80 0.0 3.2 0.00 0.00 0.00 94 1008.7
20260509141358 22 16 0.0 1.6 0.00 0.00 0.00 94 1008.4
20260509140854 21 359 0.0 1.6 0.00 0.00 0.00 94 1008.1
20260509140346 21 357 0.0 4.8 0.00 0.00 0.00 94 1007.7
20260509135841 21 357 0.0 4.8 0.00 0.00 0.00 93 1007.6
20260509135340 21 0 0.0 1.6 0.00 0.00 0.00 93 1007.7
20260509134836 21 0 0.0 3.2 0.00 0.00 0.00 93 1007.7
20260509134331 21 0 1.6 4.8 0.00 0.00 0.00 93 1007.8
20260509133826 21 359 1.6 4.8 0.00 0.00 0.00 93 1007.8
20260509133326 21 1 0.0 3.2 0.00 0.00 0.00 93 1007.9
20260509132804 21 12 0.0 4.8 0.00 0.00 0.00 93 1007.9
20260509132512 21 12 0.0 4.8 0.00 0.00 0.00 93 1008.0
20260509131741 21 33 0.0 1.6 0.00 0.00 0.00 93 1008.1
20260509131241 21 34 1.6 8.0 0.00 0.00 0.00 93 1007.9
20260509130728 21 34 1.6 8.0 0.00 0.00 0.00 93 1007.9
20260509130221 21 33 0.0 4.8 0.00 0.00 0.00 93 1008.1
20260509125714 21 22 1.6 4.8 0.00 0.00 0.00 93 1007.8
20260509125155 21 22 1.6 8.0 0.00 0.00 0.00 93 1007.8
20260509124926 21 24 1.6 8.0 0.00 0.00 0.00 93 1007.7
20260509124424 21 25 1.6 8.0 0.00 0.00 0.00 93 1007.7
20260509123644 21 25 3.2 9.7 0.00 0.00 0.00 93 1007.8
20260509123119 21 357 3.2 9.7 0.00 0.00 0.00 93 1008.0
20260509122616 21 29 1.6 8.0 0.00 0.00 0.00 93 1008.0
20260509122117 21 54 0.0 4.8 0.00 0.00 0.00 93 1007.8
20260509121611 21 93 1.6 4.8 0.00 0.00 0.00 93 1007.9
20260509121340 21 53 1.6 8.0 0.00 0.00 0.00 93 1007.9
20260509120604 21 33 3.2 8.0 0.00 0.00 0.00 93 1008.0
20260509115601 21 22 3.2 11.3 0.00 0.00 0.00 93 1007.8
20260509115101 21 16 4.8 11.3 0.00 0.00 0.00 93 1008.0
20260509114601 21 343 4.8 11.3 0.00 0.00 0.00 93 1008.1
20260509114102 21 6 4.8 12.9 0.00 0.00 0.00 93 1008.1
20260509113602 21 354 4.8 12.9 0.00 0.00 0.00 93 1008.0
20260509113101 21 4 4.8 9.7 0.00 0.00 0.00 93 1008.0
20260509112834 21 351 3.2 9.7 0.00 0.00 0.00 93 1007.8
20260509112336 21 4 1.6 6.4 0.00 0.00 0.00 93 1007.8
20260509111602 21 359 1.6 4.8 0.00 0.00 0.00 93 1007.6
20260509111059 21 31 1.6 6.4 0.00 0.00 0.00 93 1007.5
20260509110552 21 33 1.6 6.4 0.00 0.00 0.00 93 1007.4
20260509110030 21 25 1.6 4.8 0.00 0.00 0.00 93 1007.3
20260509105520 21 24 1.6 6.4 0.00 0.00 0.00 93 1007.3
20260509105017 21 34 0.0 6.4 0.00 0.00 0.00 93 1007.2
20260509104518 21 37 1.6 3.2 0.00 0.00 0.00 93 1007.3
20260509104248 21 32 1.6 6.4 0.00 0.00 0.00 93 1007.5
20260509103747 21 29 1.6 6.4 0.00 0.00 0.00 93 1007.5
20260509103005 21 43 0.0 6.4 0.00 0.00 0.00 93 1007.5
20260509102506 21 44 1.6 6.4 0.00 0.00 0.00 93 1007.5
20260509102004 21 27 1.6 4.8 0.00 0.00 0.00 93 1007.5
20260509101459 21 32 1.6 6.4 0.00 0.00 0.00 93 1007.4
20260509101000 21 26 3.2 8.0 0.00 0.00 0.00 93 1007.5
20260509100456 21 11 3.2 9.7 0.00 0.00 0.00 93 1007.4
20260509095944 21 29 3.2 9.7 0.00 0.00 0.00 93 1007.3
20260509095442 21 31 3.2 8.0 0.00 0.00 0.00 93 1007.2
20260509095214 21 32 3.2 9.7 0.00 0.00 0.00 93 1006.9
20260509094440 21 39 3.2 9.7 0.00 0.00 0.00 93 1006.9
20260509093940 21 25 1.6 9.7 0.00 0.00 0.00 93 1006.7
20260509093436 21 33 0.0 3.2 0.00 0.00 0.00 93 1006.7
20260509093144 21 58 0.0 3.2 0.00 0.00 0.00 93 1006.4
20260509092406 21 58 0.0 3.2 0.00 0.00 0.00 93 1006.4
20260509091904 21 80 0.0 3.2 0.00 0.00 0.00 93 1006.3
20260509091404 21 115 0.0 0.0 0.00 0.00 0.00 93 1006.6
20260509090856 21 115 0.0 0.0 0.00 0.00 0.00 93 1006.7
20260509090348 21 115 0.0 0.0 0.00 0.00 0.00 93 1006.6
20260509085843 21 115 0.0 0.0 0.00 0.00 0.00 93 1006.7
20260509085341 21 115 0.0 0.0 0.00 0.00 0.00 93 1006.7
20260509084838 21 116 0.0 0.0 0.00 0.00 0.00 93 1006.7
20260509084330 21 116 0.0 3.2 0.00 0.00 0.00 93 1006.6
20260509083822 22 115 0.0 3.2 0.00 0.00 0.00 93 1006.7